Volver al catálogo

STARLINK-33608

ActivoComunicacionesVLEO
NORAD 63425·PAYLOAD·🇺🇸 United States

Lanzado Mar 31, 2025 desde Cape Canaveral Space Force Station

Loading…

Próximos Pases (próximas 24 horas)

TLE

ActualizadoSource: CelesTrak SupGP

Época: Sep 14, 2026, 20:42 UTC

1 63425C 25065AC  26257.86298611 -.00055722  00000+0 -20188-2 0  2571
2 63425  43.0015 118.7117 0001432 271.1191 349.6934 15.27597775    17

Sigue STARLINK-33608 en tiempo real con AllMySat

Download on the App Store